sat.trackr.live / text

‹ back to catalog

STARLINK-4423

NORAD 53209 · 2022-084W

PAYLOAD ACTIVE UNKNOWN

§ Identity

Operator
Country
US
Launch date
2022-07-22
Launch site
AFWTR
Launch vehicle
Mass (kg)
RCS (m²)

Purposes: comms

External: N2YO · Heavens-Above · Gunter

§ Orbital elements

Epoch: 2026-09-19T22:48:16.856640Z

Period
93.91 min
Inclination
97.2849°
Eccentricity
0.0000946
Mean motion
15.33439831 rev/d
Perigee alt
464.9 km
Apogee alt
466.2 km
Semi-major
6,843.7 km
B*
1.9645e-5
RAAN
317.7271°
Arg perigee
109.1967°
Mean anomaly
250.9378°
Rev number
22,860

§ Raw data

STARLINK-44231 53209U 22084W   26262.95019510  .00000559  00000+0  19645-4 0  99902 53209  97.2849 317.7271 0000946 109.1967 250.9378 15.33439831228602

JSON: /api/v1/satellites/53209 · /tle

For live sub-satellite position, see the globe view (requires WebGL).

§ Visibility from observer

Set your observer location to see the next 7 days of passes ≥ 10°. The values pass through the URL so the page stays shareable.

No JS? Fill the form by hand. The geolocation button needs JavaScript.